Free Severe Weather Alerts by Email and Text Message   

 
Follow iAlert.com on twitter @ialertcom
Search For Active Alerts in Your Area  
  Hi Guest:  [ Sign-up / Services ] [ Login ]

Current weather by "City, St" or "zip code"  

 

Advertise Here

Hazardous Weather Conditions

No active alerts for DENVER, COLORADO

Current Conditions: DENVER, COLORADO

A Few Clouds and Breezy


36.0 F

Last Updated on Jan 23 2018, 9:47 am MST
Humidity: 32%
Wind Speed: W 23.0 G 32.2 mph
Barometer 30.21 in
Dewpoint: 8.6 F
Visibility: 30.00 mi
Precip: --
Heat Index: NA
Wind Chill: 24 F
Current conditions at:

Broomfield / Jeffco, CO (KBJC)

Lat: 39.90 Lon: -105.10

Local Radar Image active severe weather and emergency alerts image image weather storm and storm spotter reports image weather observation monitoring service image
Local
Radar
Active
Alerts
Storm Reports Weather
Monitoring

Weather Alert Notification Services


ialert severe weather and emergency alerts by text message and email ialert daily weather forecast by email and text message service ialert real-time weather-observation monitoring and alert notification service ialert storm report monitoring alert notification

Observation History for DENVER, COLORADO


Time Wind
(mph)
Vis
(mi)
Weather Precip (in) Temperature (F) Relative
Humidity
Wind
Chill
(°F)
Heat
Index
(°F)
Pressure
Air Dwpt altimeter
(in)
sea level
(mb)
9:47 am MST W 23.0 G 32.2 30.00 A Few Clouds and Breezy -- 36.0 8.6 32% 24 NA 30.21 M
8:47 am MST W 3.5 30.00 A Few Clouds -- NULL % NA NA 30.20 M
7:51 am MST NW 5.8 30.00 A Few Clouds -- 32.0 3.2 29% 26 NA 30.18 M
6:47 am MST NW 8.1 30.00 A Few Clouds -- 30.0 6.8 37% 22 NA 30.16 M
5:51 am MST W 8.1 10.00 Fair -- 28.0 8.6 43% 20 NA 30.14 M
4:50 am MST W 4.6 10.00 Fair -- 32.0 8.6 37% 27 NA 30.13 M
3:52 am MST W 11.5 G 17.3 10.00 Fair -- 32.0 10.4 40% 23 NA 30.13 M
2:49 am MST W 6.9 10.00 Fair -- 28.0 12.2 51% 21 NA 30.13 M
1:50 am MST W 16.1 10.00 Fair -- 32.0 12.2 44% 21 NA 30.12 M
12:54 am MST W 18.4 G 23.0 10.00 Partly Cloudy -- 34.0 10.4 38% 23 NA 30.10 M
11:52 pm MST W 20.7 10.00 Mostly Cloudy and Breezy -- 34.0 12.2 41% 22 NA 30.09 M
10:54 pm MST W 16.1 10.00 Mostly Cloudy -- 34.0 10.4 38% 24 NA 30.08 M
9:45 pm MST W 20.7 G 28.8 30.00 Mostly Cloudy and Breezy -- 36.0 6.8 30% 25 NA 30.07 M
8:48 pm MST W 9.2 G 18.4 30.00 Mostly Cloudy -- 34.0 5.0 29% 27 NA 30.08 M
7:46 pm MST W 17.3 G 32.2 30.00 Mostly Cloudy -- 34.0 5.0 29% 23 NA 30.06 M
6:46 pm MST W 17.3 30.00 Mostly Cloudy -- 34.0 5.0 29% 23 NA 30.05 M
5:50 pm MST W 24.2 G 34.5 30.00 Mostly Cloudy and Breezy -- 36.0 3.2 25% 24 NA 30.04 M
4:45 pm MST W 23.0 50.00 A Few Clouds and Breezy -- 36.0 5.0 27% 24 NA 30.03 M
3:47 pm MST W 24.2 50.00 A Few Clouds and Breezy -- 37.0 8.6 30% 26 NA 30.01 M
2:47 pm MST W 15.0 50.00 A Few Clouds -- 39.0 8.6 28% 31 NA 29.99 M
1:47 pm MST W 8.1 50.00 Clear -- 39.0 10.4 30% 33 NA 29.99 M
12:47 pm MST W 16.1 50.00 Clear -- 39.0 10.4 30% 30 NA 29.99 M
11:47 am MST W 18.4 50.00 A Few Clouds -- 37.0 8.6 30% 27 NA 29.99 M
10:47 am MST W 27.6 50.00 A Few Clouds and Windy -- 34.0 8.6 35% 21 NA 30.01 M

Regional Weather Observation:


Erie Municipal Airport, CO (KEIK)

Fair
34.0 F

Boulder Municipal Airport, CO (KBDU)

Fair
37.0 F

Fort Collins/Loveland - Northern Colorado Regional Airport, CO (KFNL)

Fair
34.0 F

Buckley Air Force Base Airport, CO (KBKF)

A Few Clouds
33.0 F

Denver, Denver International Airport, CO (KDEN)

A Few Clouds
31.0 F

Denver - Centennial Airport, CO (KAPA)

A Few Clouds
31.0 F

Advertise Here


Advertise Here